Theta_e
311 312 313 313 313 313 313 312 312 312 312 312 312 312 312 312 311 311 311 312 311 312 312 312 312 312 313 313 313 312 312 304 301 301 300 304 313 318 320 320 321 324 322 308 300 298 296 298 298 302 301 301 300 300 302 303 303 302 295 292 292 293 294 298 299 299 301 300 304 306 307 307 305 309 312 314 311 313 319 322 326 331 332 335 334 333 333 336
311 311 311 312 313 312 312 312 312 312 312 312 312 313 313 313 312 313 312 311 312 312 312 312 312 312 312 312 312 312 308 302 299 300 300 310 319 321 322 323 320 321 317 301 299 299 298 298 299 301 299 297 302 299 303 299 304 298 294 294 293 294 296 302 302 303 302 302 305 307 308 307 306 308 310 308 307 314 319 324 329 328 331 332 332 331 334 335
311 311 311 312 313 313 313 313 313 313 313 312 312 313 313 312 313 313 313 313 311 312 311 312 312 311 312 312 312 312 305 300 299 298 306 322 318 322 324 321 323 320 307 303 302 301 299 298 300 300 299 296 298 298 300 298 301 300 297 294 295 298 298 302 304 304 305 305 305 306 308 308 309 309 312 308 305 313 319 323 327 327 326 327 328 331 333 334
312 312 313 313 313 313 313 313 313 313 312 312 312 312 312 313 313 313 313 312 312 312 311 312 312 311 312 311 312 309 302 298 296 303 307 320 323 322 321 322 322 318 307 305 304 302 302 301 300 300 297 297 297 300 296 299 298 298 297 295 296 299 298 301 305 305 306 307 306 307 308 307 309 309 310 309 306 306 315 326 326 326 326 327 328 330 332 332
313 313 313 313 313 313 313 313 312 312 313 313 313 313 313 313 312 312 312 313 312 312 312 311 311 311 311 311 311 305 298 286 295 307 311 318 321 321 322 320 322 313 309 306 304 303 302 299 299 299 298 294 298 297 298 299 302 302 297 300 299 299 299 302 304 306 306 308 307 307 305 306 311 309 309 307 304 305 308 318 330 331 329 328 327 329 332 331
312 313 313 312 312 312 312 312 312 312 311 311 312 312 313 313 313 313 313 312 312 312 311 312 311 311 311 311 306 302 294 279 303 307 320 321 321 322 321 321 321 317 309 304 303 302 300 298 297 295 294 295 295 294 296 299 301 295 298 298 300 301 299 302 304 305 306 306 306 305 307 309 308 308 310 308 307 309 314 317 330 333 332 331 330 330 331 331
311 311 311 311 311 311 311 311 311 311 311 311 311 311 311 311 311 311 312 312 312 311 312 311 311 311 310 310 303 299 294 295 302 308 319 323 324 322 323 322 321 316 309 302 300 299 298 295 296 294 295 294 295 296 299 298 300 298 296 299 299 301 301 303 303 304 305 305 304 307 309 307 308 305 311 309 310 311 314 314 333 334 333 331 328 330 331 331
310 310 311 311 311 310 310 311 311 310 310 310 310 310 310 310 310 311 311 312 311 311 312 311 311 311 310 302 298 294 293 294 302 308 321 324 321 321 324 317 312 306 302 299 296 295 296 294 293 297 294 293 296 297 300 298 298 296 296 299 300 301 302 304 304 303 302 303 304 306 305 306 308 308 309 308 309 312 314 315 334 334 331 330 328 329 331 331
310 310 310 310 310 310 310 311 311 311 310 310 310 310 310 310 310 310 310 311 311 311 311 312 311 310 310 302 295 290 290 301 306 310 318 320 314 314 314 305 309 303 300 297 296 296 296 293 295 297 292 295 298 297 298 296 294 298 298 299 300 300 302 302 303 303 304 305 305 302 304 307 308 311 307 309 310 311 313 318 333 333 329 329 328 329 330 331
309 310 309 310 310 310 310 310 310 310 311 310 310 310 310 310 310 310 310 310 310 311 311 311 311 310 304 298 295 285 294 306 309 313 314 312 312 309 307 306 301 298 296 295 295 295 294 294 296 297 296 294 298 296 299 297 295 299 298 299 299 300 301 303 302 303 304 304 305 302 302 305 308 307 303 312 312 313 311 316 331 331 329 329 328 329 331 331
310 310 310 310 309 309 309 309 310 310 310 310 310 310 310 310 310 310 310 310 310 310 311 311 311 309 300 298 290 286 302 304 304 304 303 302 301 301 303 302 299 298 297 295 294 296 296 296 297 298 297 293 295 296 297 298 301 300 299 298 298 300 301 301 303 304 304 303 305 304 302 304 308 306 304 308 313 313 310 317 329 331 330 329 329 329 331 332
309 309 309 309 309 309 309 309 309 310 310 309 309 309 310 310 309 309 309 310 310 311 311 311 311 306 302 297 293 292 305 305 305 304 302 301 301 302 302 300 299 299 297 294 295 296 297 297 297 296 289 296 289 295 296 299 298 298 299 294 295 297 298 301 300 302 304 302 305 305 301 300 302 303 307 309 310 313 313 311 327 330 329 329 330 330 330 331
308 309 309 310 309 309 309 309 309 309 309 309 309 309 309 309 309 309 310 309 310 311 311 311 311 307 299 289 294 302 304 305 303 303 303 304 304 304 303 301 299 299 298 295 295 297 297 296 296 292 296 293 291 288 297 298 297 299 298 295 293 293 294 299 302 302 301 303 305 304 292 296 299 304 307 311 311 311 310 309 324 327 328 329 330 330 331 332
308 309 309 308 309 309 309 309 309 309 309 309 309 309 309 309 309 310 310 310 311 311 312 311 309 304 298 292 299 304 305 305 305 303 303 304 302 300 300 300 300 299 299 297 298 297 297 297 296 295 297 293 290 299 296 296 297 291 295 294 289 288 289 298 300 301 299 303 303 304 293 296 300 302 306 309 311 310 308 309 320 323 326 327 329 330 330 331
308 308 308 308 308 308 308 308 309 309 309 309 309 309 309 309 310 310 311 310 311 311 311 311 307 299 292 294 303 306 314 311 303 302 304 301 300 299 299 299 299 299 299 299 297 298 298 297 295 292 290 297 296 293 290 291 293 294 290 287 289 288 290 296 300 300 297 301 303 300 293 296 299 302 304 306 309 309 308 308 309 318 323 325 328 329 330 332
308 308 308 308 307 308 308 308 308 308 309 309 309 309 309 310 310 311 311 311 312 312 311 303 302 298 291 288 298 312 305 303 303 307 307 305 302 299 300 298 299 299 299 297 300 300 299 297 292 291 292 293 290 287 287 287 287 291 288 286 288 289 290 292 297 300 301 300 301 299 293 297 298 303 304 305 307 310 307 307 306 314 320 324 327 328 330 332
307 307 307 307 307 307 308 308 308 308 308 308 309 309 309 310 311 311 311 311 310 310 306 298 300 300 288 300 306 299 298 301 307 306 306 306 304 302 301 298 296 296 297 297 298 297 297 294 295 293 293 288 288 290 284 282 283 285 289 287 289 288 290 289 296 299 300 300 297 299 296 297 297 302 304 304 306 307 306 307 308 314 318 322 324 327 331 333
307 307 307 307 307 307 307 307 308 308 308 308 308 307 306 309 312 310 307 309 309 307 306 307 301 295 291 299 292 295 301 301 301 302 304 305 305 303 300 295 296 294 294 293 295 292 295 289 292 283 287 287 287 285 282 280 284 285 285 284 287 289 290 290 291 296 298 299 297 297 296 297 298 298 301 304 307 307 306 307 307 314 317 320 323 328 331 333
307 307 307 306 306 306 307 307 308 308 308 308 307 307 309 311 306 305 303 304 298 293 290 291 291 283 283 292 299 300 301 303 304 300 298 299 301 300 298 298 296 292 288 288 288 292 292 289 291 284 281 283 284 285 285 287 290 288 289 287 287 287 288 289 294 297 298 296 295 295 294 296 298 299 299 300 304 304 305 307 307 315 317 320 323 327 331 333
307 307 306 306 306 306 307 307 307 308 307 305 302 301 300 295 293 291 298 298 294 295 295 296 297 296 296 297 297 303 306 304 298 299 297 300 298 295 295 295 293 292 288 284 286 287 292 283 280 281 283 285 287 287 288 289 290 291 290 289 289 289 289 292 293 297 298 296 295 295 296 296 297 299 299 300 300 301 302 303 305 311 316 321 322 327 330 332
307 307 306 306 306 306 306 306 307 307 307 303 300 297 291 291 287 285 292 294 296 296 294 295 295 294 294 298 299 299 295 297 299 298 299 304 298 294 290 291 288 285 284 286 285 289 290 281 281 284 286 287 287 287 288 288 289 289 289 288 288 289 288 291 292 296 297 294 294 296 296 296 297 297 300 301 301 300 300 301 302 307 313 318 322 327 330 332
306 306 306 306 306 306 306 306 306 307 307 301 299 296 297 296 299 300 295 287 294 296 296 296 297 295 299 298 300 300 299 293 295 297 301 299 295 289 289 289 286 282 285 286 285 283 281 279 284 287 289 289 288 288 288 287 287 288 286 287 287 288 291 293 294 295 298 295 290 296 295 295 297 297 298 300 301 302 302 303 303 304 309 314 318 325 329 328
306 305 305 305 306 306 306 306 306 306 301 298 297 297 296 300 301 302 298 291 289 296 294 294 293 294 294 299 300 301 293 291 290 296 297 298 293 291 290 286 285 285 285 285 281 281 278 281 285 288 288 287 287 288 287 287 287 286 286 285 284 289 287 284 291 293 296 295 293 293 293 296 298 298 298 300 301 302 304 304 305 305 306 311 316 323 328 330
305 305 305 305 306 306 306 306 305 301 298 299 298 297 301 302 302 300 294 285 285 292 294 295 295 295 295 294 299 297 293 293 293 293 301 297 290 292 289 287 285 284 282 284 283 281 281 285 289 288 288 287 286 287 286 285 283 286 287 286 286 287 289 289 289 292 293 296 297 295 292 291 294 295 295 298 301 302 303 303 304 306 308 310 313 321 329 330
305 305 305 305 306 306 305 305 299 299 300 300 298 302 303 304 304 301 292 287 288 288 297 297 298 297 298 304 302 294 296 296 295 297 299 296 293 290 287 291 287 283 284 285 284 283 283 287 289 287 287 287 286 285 286 285 282 284 287 288 288 289 289 290 291 291 288 287 294 293 286 287 291 293 295 298 298 299 301 301 301 304 306 308 309 318 328 332
305 305 305 305 306 305 306 297 295 299 298 296 300 304 305 304 304 301 291 283 279 286 295 287 298 292 299 293 299 296 294 287 294 296 298 297 299 292 292 286 288 282 284 285 284 284 285 289 288 285 285 285 286 285 287 287 283 282 284 290 290 290 289 289 289 288 281 281 289 296 286 283 291 290 294 296 297 297 299 300 301 304 306 308 310 318 326 330
306 306 305 305 306 306 297 292 299 299 294 297 303 304 305 304 305 299 287 279 274 288 286 292 292 295 298 295 296 294 280 283 295 297 295 301 295 297 288 285 286 288 289 289 282 279 287 286 286 286 284 284 283 283 287 287 284 281 289 290 290 289 288 288 288 287 285 290 291 292 292 286 285 289 293 296 296 297 297 298 300 304 305 307 311 320 326 330
305 305 305 306 305 305 298 299 298 295 298 301 304 305 304 304 303 295 280 268 269 291 286 289 294 300 296 298 298 291 289 293 287 292 296 297 296 293 289 285 285 284 286 284 276 284 286 283 284 284 284 283 281 285 288 289 286 285 290 290 289 289 289 289 288 287 287 286 282 287 290 286 284 287 293 295 293 294 296 297 299 302 305 306 312 321 326 330
305 305 306 306 306 306 303 298 296 296 302 304 305 305 306 303 297 285 274 267 286 287 299 290 306 297 296 298 294 293 292 296 287 291 297 298 297 293 286 286 287 286 287 285 280 283 286 286 286 286 284 282 285 287 288 289 286 289 291 291 291 291 290 290 288 287 286 283 279 284 288 282 283 287 291 293 294 293 295 297 299 301 304 304 312 320 324 328
305 306 306 306 304 300 299 300 298 302 305 306 305 305 304 297 287 278 272 267 289 280 293 294 293 289 294 290 290 293 290 292 293 295 295 293 295 296 294 296 289 286 285 286 285 285 287 292 293 288 285 287 287 288 288 289 291 293 291 289 288 288 288 289 289 288 285 279 281 286 288 286 280 286 290 290 293 296 296 297 299 299 303 305 307 319 323 326
305 306 306 306 296 300 301 296 300 305 305 306 305 302 297 289 279 271 267 277 290 287 293 291 288 294 289 287 284 291 290 291 291 292 289 294 291 294 292 289 291 285 282 282 282 285 286 287 286 287 291 291 290 287 290 290 291 291 287 286 285 284 285 284 285 287 279 277 284 288 288 289 279 283 290 295 297 298 298 296 297 298 300 304 304 313 323 326
305 306 306 303 302 303 296 295 302 306 306 305 303 296 287 273 277 271 272 291 279 282 285 285 290 289 289 290 287 287 285 288 291 290 286 286 286 284 285 281 281 277 277 277 276 282 281 283 286 288 293 289 287 285 286 288 288 288 286 285 279 275 279 275 279 277 278 278 284 288 289 285 284 287 290 295 297 297 299 299 298 299 299 301 304 309 321 326
305 305 307 305 306 300 302 304 306 305 305 303 298 289 279 272 270 276 276 284 279 289 285 291 288 289 289 287 284 288 290 284 290 289 290 290 285 285 289 287 287 282 273 280 278 276 278 283 284 285 287 290 288 281 280 280 283 284 283 281 278 274 273 271 276 279 280 285 288 287 290 284 286 289 293 295 297 298 298 300 301 300 300 301 304 307 317 324
305 305 301 303 304 304 305 306 307 307 302 300 292 286 278 273 272 291 282 284 285 294 292 289 289 290 287 281 283 289 282 288 288 287 289 285 285 281 284 288 288 283 281 279 274 275 269 273 279 283 279 288 287 286 284 282 283 283 287 285 281 280 277 271 276 274 277 281 285 289 285 278 282 283 293 295 298 300 300 299 300 301 302 303 306 307 315 323
305 303 301 301 302 305 305 306 306 306 300 294 284 279 275 275 278 277 281 285 290 291 289 293 288 287 283 283 287 291 289 282 289 288 285 284 280 281 281 282 287 286 284 274 278 277 276 276 281 286 286 288 286 288 289 286 285 287 287 289 282 280 285 278 280 281 281 281 281 284 281 283 287 290 295 298 297 298 301 301 300 300 302 302 304 306 313 321
302 299 302 299 303 306 306 307 305 301 296 289 280 275 275 279 275 284 284 293 292 287 289 290 289 282 278 278 285 287 291 284 286 285 282 285 285 282 286 286 285 287 282 276 278 275 278 274 285 287 289 288 289 291 289 290 278 284 286 281 285 289 287 280 282 287 284 281 279 284 286 288 292 293 293 295 296 297 299 300 301 300 300 302 304 306 313 319
297 299 297 303 306 307 309 307 306 299 295 288 281 276 279 283 290 289 293 290 291 291 287 281 281 279 275 275 278 284 286 289 286 284 276 284 280 285 285 286 289 288 288 284 276 282 274 275 285 286 285 290 292 292 291 291 291 287 282 284 289 292 294 285 277 280 279 277 279 286 281 282 285 279 293 292 294 296 297 298 299 300 300 300 304 307 314 319
296 296 300 301 306 306 306 305 302 297 293 288 282 286 288 283 292 292 295 294 293 291 285 284 284 287 277 278 278 284 288 284 283 285 280 284 279 288 286 285 289 288 289 288 281 281 284 274 280 284 285 288 294 293 289 290 292 288 287 294 284 277 279 284 282 275 273 275 277 283 285 284 283 283 290 290 292 294 297 297 298 299 299 300 303 307 315 321
294 294 293 302 306 307 305 305 299 292 288 283 280 282 288 289 293 293 295 297 293 289 284 285 281 285 283 281 282 286 287 282 285 282 278 282 279 287 286 288 286 289 290 289 283 285 287 275 278 286 288 292 291 288 279 282 289 292 293 289 293 289 285 281 280 286 284 277 276 278 283 280 287 286 289 291 292 294 295 296 297 299 300 302 303 307 313 319
293 291 291 304 306 306 307 302 295 291 286 281 281 283 289 288 292 295 296 295 290 288 286 285 288 284 286 286 286 283 287 287 286 284 282 284 281 291 288 291 288 289 290 290 285 290 281 282 271 280 289 288 282 287 283 283 281 284 286 284 287 287 290 288 288 285 281 278 277 275 276 281 287 290 292 293 293 294 294 295 295 297 299 303 305 308 313 317
295 291 292 305 306 306 304 297 288 286 285 285 286 286 289 288 292 295 296 297 293 297 290 289 287 285 286 285 285 289 286 286 287 281 283 284 285 279 291 290 291 288 290 288 288 289 281 281 275 279 281 280 284 290 291 289 287 286 285 283 284 283 282 280 280 289 287 283 280 278 276 279 289 296 296 295 295 295 295 296 296 297 297 302 307 308 313 316
289 284 292 306 305 305 298 287 284 288 284 283 283 288 290 298 293 293 294 293 293 290 297 292 292 289 287 287 287 288 288 286 286 285 285 282 288 286 292 295 292 292 287 283 286 292 289 286 280 277 280 282 286 290 293 294 293 290 290 286 288 286 287 283 279 283 287 286 290 287 280 282 292 296 297 297 296 297 297 296 297 298 298 300 306 308 311 315
289 288 301 305 306 303 293 284 287 287 284 286 293 294 295 294 292 293 292 294 290 293 289 290 290 288 290 287 288 287 289 286 288 284 287 288 288 290 294 294 295 292 291 289 293 296 295 284 280 281 285 287 290 292 293 294 294 290 290 291 288 285 288 287 286 288 284 284 283 281 280 282 290 296 296 299 297 297 297 296 298 299 300 303 305 308 309 313
289 290 293 305 306 303 292 284 282 281 285 291 292 292 295 293 292 291 291 292 289 289 287 289 292 293 289 291 288 286 290 282 289 288 286 290 288 295 294 293 296 291 291 288 286 294 284 286 284 277 275 278 281 285 287 291 291 288 287 289 290 290 291 291 290 290 282 284 286 282 277 280 291 297 299 299 298 297 297 298 299 300 302 304 305 308 310 313
289 292 292 297 303 301 289 287 285 285 287 287 288 286 287 290 295 294 293 292 294 288 286 288 291 293 290 292 289 289 290 288 285 291 291 290 290 297 294 294 296 293 295 296 298 296 287 285 283 275 270 269 269 271 273 277 282 286 290 290 291 289 289 287 280 283 280 284 288 282 281 287 292 296 297 300 298 297 299 297 300 304 305 306 307 308 310 314
288 281 287 290 294 295 292 293 291 287 285 285 284 286 288 287 292 296 296 293 292 291 288 289 287 292 290 290 288 288 289 293 289 287 289 288 291 295 297 296 294 294 297 300 299 295 287 289 286 282 278 275 278 281 287 288 287 283 287 289 289 290 291 290 288 283 281 284 284 286 286 288 291 294 297 300 300 299 300 303 302 304 305 308 308 309 312 317
289 283 282 281 286 287 288 289 285 285 283 288 281 285 285 288 291 291 295 288 293 289 286 289 290 288 289 288 286 287 289 289 292 290 290 290 293 294 297 297 297 297 300 299 300 293 290 285 286 285 285 285 287 288 290 290 286 288 288 288 290 289 290 289 284 283 290 285 282 287 289 289 290 293 298 299 300 300 303 306 306 305 306 307 308 310 314 320
283 285 288 288 283 280 282 281 286 285 287 288 283 287 287 289 288 285 291 292 293 292 285 284 285 289 289 286 287 283 287 288 289 284 292 293 293 294 293 296 294 299 301 295 299 292 288 282 287 287 287 289 290 290 291 290 290 290 289 289 288 290 291 289 287 289 290 283 282 288 290 290 292 295 298 300 301 300 301 303 309 309 307 308 311 313 316 320
289 288 289 290 281 282 281 285 287 286 286 287 285 290 287 287 285 288 288 288 290 290 289 285 287 288 288 288 287 285 287 284 284 289 288 288 289 289 287 290 295 298 297 293 295 294 290 283 289 289 287 288 290 290 292 291 291 290 289 288 289 290 290 290 289 290 290 289 290 292 292 291 297 298 301 302 303 303 303 304 307 310 310 313 315 316 318 321
285 284 283 288 288 285 285 285 285 285 283 288 283 286 287 286 285 287 290 289 285 288 292 287 287 289 287 285 288 286 288 289 288 285 288 289 287 289 288 289 289 294 298 294 293 293 289 283 292 290 283 285 289 291 292 291 290 287 289 289 290 290 290 290 290 291 293 291 292 292 292 293 299 301 302 303 304 305 305 303 304 308 314 316 317 318 319 321
291 292 291 286 283 284 287 285 283 283 281 284 283 286 287 287 286 288 288 292 289 286 288 287 289 288 288 286 286 286 290 291 290 289 292 291 286 292 288 289 295 290 293 292 292 293 290 285 292 286 280 281 287 289 289 289 289 287 286 287 288 288 287 289 287 292 291 290 292 291 289 291 297 301 302 305 305 304 302 304 304 305 313 317 318 319 320 321
295 295 293 289 282 287 283 285 284 282 279 284 286 286 286 286 288 289 285 291 293 291 291 290 290 289 289 284 285 289 292 294 294 295 295 296 296 295 295 296 296 293 289 289 293 288 287 285 283 282 281 277 286 289 288 287 284 282 282 287 291 291 291 292 294 295 294 296 289 285 290 298 297 302 301 301 304 304 303 303 305 305 309 318 318 319 320 322
Wind_Speed
16 16 16 15 15 15 15 15 15 16 15 15 15 15 16 16 17 17 18 18 19 20 20 19 20 20 21 22 23 22 22 11 16 12 9 9 4 2 4 5 6 6 7 4 3 5 6 6 5 9 4 0 3 2 3 3 2 2 4 6 9 6 9 5 8 7 3 3 7 8 4 6 10 11 9 7 5 4 6 10 7 3 4 10 14 17 15 16
15 15 15 15 15 15 15 15 15 15 15 16 16 17 17 17 17 16 17 17 18 19 19 20 20 21 21 21 22 22 17 12 13 13 16 9 4 4 6 7 6 4 5 1 3 1 2 3 3 7 6 2 2 2 5 2 5 6 3 6 13 7 3 5 5 7 5 7 4 7 7 7 8 2 4 11 6 2 7 3 9 4 7 11 17 16 17 17
15 14 15 15 15 16 16 16 16 16 16 16 17 17 17 18 18 18 18 18 18 18 19 20 20 21 22 22 20 20 12 12 7 6 7 5 12 10 7 5 4 3 2 0 0 1 0 3 5 5 3 2 3 6 4 4 6 9 7 11 11 3 3 6 6 7 8 5 7 11 13 14 12 7 2 8 3 5 8 4 2 1 11 14 15 16 17 18
16 16 16 17 17 17 17 18 18 18 18 18 18 18 18 18 19 19 19 19 19 18 18 19 20 21 21 21 21 14 7 5 2 3 2 3 6 6 6 6 4 1 1 1 1 2 2 3 3 2 2 2 3 3 5 6 7 4 8 11 5 4 4 4 9 9 9 9 7 13 11 11 9 7 7 3 9 3 6 14 9 8 13 15 16 17 16 16
17 17 17 17 17 17 17 17 17 17 17 17 17 17 18 18 18 18 18 19 19 19 19 19 19 19 21 21 21 7 6 3 2 2 1 6 7 7 8 7 5 1 0 2 4 2 2 2 1 1 1 2 2 2 7 7 6 1 11 12 5 4 7 7 8 11 11 12 15 12 11 9 2 3 7 7 10 12 5 6 12 18 16 17 17 17 17 17
17 17 16 16 16 16 16 16 17 17 18 18 18 18 18 18 18 19 18 18 18 19 20 20 20 20 19 19 14 5 1 3 1 2 5 7 8 9 8 7 5 2 1 2 1 4 3 2 1 0 1 2 3 7 4 9 4 10 8 5 8 6 5 3 7 8 10 11 14 10 12 7 5 7 7 7 9 5 11 6 11 16 22 22 19 16 14 14
17 17 16 16 17 17 18 18 19 19 19 19 20 20 20 19 19 19 20 19 19 19 18 19 19 21 21 16 11 4 1 7 3 5 8 8 9 8 9 7 3 1 1 2 2 1 1 3 0 1 1 2 8 6 7 5 8 10 14 7 8 9 14 7 5 7 11 14 11 10 8 14 11 14 8 13 8 9 8 7 16 16 14 15 17 19 21 20
17 17 17 18 18 19 19 20 20 20 21 21 21 21 20 20 20 20 20 20 19 19 18 18 18 18 16 10 7 3 2 8 13 5 9 8 7 8 7 2 2 0 1 3 3 3 2 3 3 1 2 5 2 4 3 6 8 14 15 10 7 10 11 12 11 9 5 7 6 6 8 12 13 10 9 11 9 13 9 12 14 11 7 15 20 18 18 16
18 18 18 19 19 20 20 21 21 21 22 22 22 21 22 21 21 21 20 20 19 19 19 18 18 16 12 4 3 4 7 7 3 7 10 6 6 4 1 2 4 2 1 3 4 5 0 2 2 3 2 2 2 8 10 2 9 14 16 8 8 10 9 8 9 12 14 9 7 4 12 15 10 14 14 10 11 8 10 7 16 16 18 17 16 18 17 17
18 19 19 20 20 20 21 21 22 22 21 22 21 21 20 20 19 20 20 21 20 19 19 18 17 13 8 4 4 0 8 6 4 6 6 5 6 6 6 6 3 1 3 3 5 3 2 3 3 4 3 5 6 9 7 8 7 7 6 10 12 9 8 9 12 11 11 12 11 10 9 9 9 7 10 9 15 18 9 15 22 24 21 17 16 17 18 20
19 19 19 20 20 21 21 21 22 22 23 23 22 22 21 21 20 19 19 20 20 19 18 17 13 10 4 3 2 6 6 5 3 6 8 6 7 6 7 7 3 1 2 6 6 4 4 5 3 3 2 3 7 6 4 6 7 11 10 9 9 12 11 5 14 17 9 12 15 12 12 10 12 10 12 9 16 23 13 13 21 19 19 18 19 18 17 17
19 19 20 21 21 22 22 23 23 24 24 25 25 24 23 22 21 20 19 19 19 18 16 14 14 4 6 6 6 11 3 4 6 6 7 9 8 8 9 7 1 2 2 4 7 7 4 5 4 2 3 7 3 8 6 4 6 6 6 7 8 9 14 14 11 14 17 13 16 12 11 13 11 18 19 18 14 12 8 13 20 22 20 17 16 15 12 13
20 20 20 20 21 22 22 23 24 25 25 26 26 26 25 24 23 22 21 19 16 16 15 13 9 2 3 8 11 20 18 15 16 17 14 8 9 9 9 9 5 5 6 5 6 5 4 3 3 5 1 2 3 4 7 12 7 7 4 3 7 8 10 15 15 14 13 13 17 15 12 12 15 19 17 14 17 17 15 9 22 18 16 14 14 13 15 13
20 20 20 21 22 23 23 24 25 26 27 27 27 26 25 24 23 22 20 18 17 16 14 10 3 2 4 9 9 9 10 9 12 14 15 8 6 7 6 5 4 4 4 6 8 6 7 4 3 4 3 3 3 4 8 6 3 4 4 2 6 6 9 12 14 18 19 11 14 16 16 12 13 14 14 12 11 14 17 12 17 16 16 14 14 16 16 16
20 21 21 22 22 23 24 25 25 25 27 27 27 26 25 25 22 19 18 15 14 11 9 6 2 1 3 9 8 17 22 13 11 16 13 4 3 5 7 6 7 7 7 7 4 4 5 6 4 3 2 1 2 4 4 3 1 0 2 9 4 10 10 11 14 18 19 12 13 11 14 17 13 13 12 11 9 9 12 14 11 15 16 16 13 10 9 12
21 21 21 21 22 23 24 25 25 25 26 26 26 27 28 24 21 17 15 12 14 10 3 0 2 3 3 10 5 7 4 4 7 11 9 6 6 7 6 4 5 7 6 5 8 6 4 3 4 2 2 2 4 3 5 5 5 2 7 3 13 10 11 7 13 15 21 14 13 17 12 12 15 15 10 7 9 7 10 10 7 17 15 14 15 14 12 8
21 21 22 22 22 23 24 24 25 25 25 25 27 27 26 24 15 12 9 8 2 2 4 2 3 3 2 4 5 5 1 3 4 2 1 6 7 8 4 4 4 3 3 4 8 5 3 4 1 3 2 3 2 2 1 4 6 5 3 8 7 15 13 12 7 14 16 19 13 14 16 15 3 11 15 8 7 9 11 12 8 15 16 15 13 13 14 14
21 22 22 22 22 23 23 24 24 24 24 26 25 22 21 25 16 2 3 2 2 3 4 0 1 2 8 2 2 6 9 5 8 7 5 3 9 5 5 4 1 4 4 3 0 7 3 3 3 3 2 3 2 3 7 12 11 9 7 5 10 10 13 13 13 11 14 17 19 14 15 19 10 5 12 12 6 9 11 13 9 14 15 15 14 13 14 14
21 21 23 22 22 23 23 24 24 24 22 25 24 22 17 11 1 2 2 3 2 2 2 0 1 2 0 8 9 10 7 13 14 6 2 5 3 5 3 2 1 2 3 1 4 4 1 1 2 2 6 6 10 10 12 14 9 10 7 4 4 9 10 12 11 8 14 13 14 18 15 15 14 10 7 7 6 7 9 7 7 13 16 16 16 14 14 14
22 22 23 22 22 23 23 22 23 24 22 14 12 10 5 5 4 2 3 2 3 7 9 9 7 8 15 19 13 10 14 10 6 10 5 1 1 2 1 1 1 1 1 3 3 2 1 5 5 7 8 9 8 9 11 12 9 7 7 6 8 8 10 7 9 8 8 12 14 13 17 17 13 14 10 9 6 4 7 7 7 9 10 13 14 15 16 16
22 22 23 22 22 22 23 23 23 23 22 10 7 4 5 8 7 5 11 11 8 7 10 13 14 12 13 10 12 10 10 14 9 9 10 3 2 2 3 2 1 2 3 3 3 3 0 4 7 8 10 9 9 5 6 10 9 9 9 10 8 8 8 5 8 11 9 9 13 16 17 23 16 10 12 10 9 11 8 7 7 11 13 11 13 17 18 19
22 22 22 23 23 23 22 23 23 23 19 3 1 3 1 4 2 6 4 8 13 5 11 13 10 13 11 13 14 6 7 9 17 13 6 2 0 2 2 2 2 5 2 2 2 3 3 6 8 12 10 6 6 8 9 9 9 11 10 9 8 9 6 11 13 9 14 8 7 16 22 20 20 13 9 14 15 12 12 10 9 11 14 14 13 11 8 4
21 22 22 23 24 23 22 22 22 21 6 5 4 5 2 6 3 2 1 4 9 5 6 5 6 11 13 9 11 4 7 8 12 9 5 0 1 7 1 2 3 3 4 3 6 4 5 6 13 11 6 8 9 9 11 11 9 7 8 10 11 6 5 5 8 8 13 12 9 8 18 20 16 14 13 11 14 13 12 11 11 12 14 16 17 16 14 13
22 22 23 24 24 23 23 21 21 7 2 5 5 3 4 3 4 4 4 1 5 10 3 4 6 3 6 6 1 9 8 4 5 8 8 2 3 3 3 3 6 5 5 3 4 7 9 10 5 5 7 8 11 11 11 9 9 9 10 10 11 12 9 7 7 9 7 13 15 13 10 10 10 12 11 9 12 15 17 12 10 9 12 15 14 15 16 19
21 22 23 23 23 24 22 21 5 4 6 5 1 5 5 4 3 3 3 3 2 7 4 1 3 3 6 3 3 3 6 5 7 4 2 4 3 2 4 3 3 8 6 4 4 6 9 10 6 7 7 10 12 12 12 9 8 8 10 11 11 12 12 10 11 10 5 6 15 16 13 15 8 13 17 14 11 15 15 15 13 11 10 11 15 17 13 15
22 23 24 23 22 21 21 6 3 5 7 1 3 5 6 4 3 1 2 3 4 5 1 2 0 1 2 2 1 2 3 4 4 6 6 6 4 4 0 3 3 7 6 5 7 5 9 8 6 9 9 9 12 12 11 10 9 7 8 8 12 13 14 14 14 8 5 7 6 18 18 13 9 10 12 14 16 16 13 11 15 15 11 12 16 17 16 16
22 22 23 22 19 17 6 1 3 7 2 3 4 5 7 4 1 3 2 2 2 4 2 2 2 1 2 3 4 2 3 2 5 4 4 2 7 4 6 6 2 1 3 1 1 6 4 8 7 7 8 10 8 10 11 10 8 10 6 10 9 12 15 16 16 12 8 7 16 11 13 14 10 10 7 14 16 18 17 14 13 13 14 15 15 17 18 18
23 22 24 21 19 11 4 4 7 4 4 5 4 6 7 5 2 3 2 2 3 3 2 3 0 2 2 5 9 1 4 5 3 4 4 1 2 1 5 7 8 6 2 3 10 5 1 3 4 7 8 8 9 7 8 11 10 7 9 11 11 10 11 13 12 12 10 8 11 10 8 11 10 5 8 13 17 18 20 18 18 15 15 15 15 16 20 22
23 24 23 19 17 16 3 4 1 4 5 4 6 7 4 3 5 3 1 2 1 1 4 1 1 1 6 8 6 2 3 0 2 3 5 6 0 2 1 4 3 4 4 7 9 5 3 8 9 8 5 6 5 8 10 10 11 12 11 7 10 12 11 11 10 10 11 9 14 14 9 7 8 8 9 9 15 17 17 20 20 15 13 10 15 18 19 19
24 22 21 18 11 4 3 1 5 7 6 7 8 6 4 2 1 2 4 2 0 4 1 2 2 6 4 6 6 5 7 3 3 2 3 2 4 3 2 2 2 4 5 5 11 11 6 5 6 5 4 5 8 11 9 9 13 9 12 12 9 8 10 11 9 9 8 12 13 16 15 8 8 7 12 13 15 17 14 12 10 8 12 13 13 17 17 17
26 22 18 14 2 1 1 3 8 9 8 7 5 4 2 2 2 3 1 3 0 3 2 1 4 3 5 8 10 4 6 7 7 3 4 1 3 0 3 7 1 5 4 4 9 8 6 6 6 3 8 9 7 10 10 12 13 12 7 8 7 8 5 7 5 8 10 9 11 14 13 12 10 5 9 13 12 19 17 11 12 11 13 14 10 11 14 18
25 21 18 8 5 1 3 4 4 4 6 4 4 4 3 1 1 5 2 2 2 3 2 5 5 5 12 8 6 3 3 2 3 3 5 4 5 3 3 8 3 1 8 7 7 1 7 10 5 9 8 11 9 9 12 12 10 10 7 5 8 4 4 6 6 9 8 10 8 11 12 11 14 9 7 15 18 11 16 14 13 14 12 14 13 15 14 15
22 20 20 7 5 3 5 10 7 8 6 5 4 2 3 4 2 2 2 3 2 2 3 2 7 11 12 10 5 6 5 5 3 4 3 1 2 5 4 7 7 6 3 3 8 4 7 4 6 9 9 8 7 7 8 7 4 7 8 6 7 7 5 6 6 4 4 8 15 13 9 13 5 7 13 16 15 12 12 16 15 15 15 16 16 15 16 16
21 18 7 3 4 6 5 4 5 6 4 4 4 6 3 6 2 3 3 1 5 3 6 2 11 14 5 2 5 0 5 3 0 2 5 1 1 3 4 7 9 7 7 5 5 6 4 7 9 10 3 5 9 10 10 7 4 5 5 8 7 6 4 5 4 6 7 6 12 16 12 4 10 6 7 13 15 16 12 10 10 13 16 17 17 17 17 17
21 11 4 3 2 6 9 9 6 2 4 4 5 3 5 1 2 2 4 2 2 5 8 5 9 6 8 1 2 1 2 3 3 1 3 3 4 3 3 3 11 10 8 6 2 1 8 6 9 4 4 2 5 5 6 7 9 7 5 7 7 8 2 6 4 4 6 9 10 9 7 5 11 4 8 14 12 11 16 16 11 12 12 12 14 16 17 18
9 6 2 2 1 3 6 6 3 2 4 6 4 4 2 1 2 1 2 3 3 5 12 12 6 2 3 3 2 2 4 4 6 4 3 6 5 5 5 3 6 15 7 7 3 2 1 7 1 3 3 3 6 6 7 4 3 5 2 6 8 5 6 4 7 2 2 3 9 3 5 9 7 11 8 7 13 15 13 18 20 15 13 14 15 15 16 17
6 5 3 2 2 2 4 4 3 3 3 2 4 2 3 3 2 2 2 4 4 7 6 7 2 0 1 3 1 6 3 1 4 3 4 2 4 6 4 7 8 9 12 7 3 1 3 6 4 1 10 8 3 4 7 7 7 4 4 5 3 3 2 3 3 2 2 3 5 8 6 4 8 8 7 4 11 15 15 16 17 17 16 15 16 15 14 16
5 3 3 2 3 2 5 4 5 3 2 2 2 3 2 1 2 5 2 3 1 1 4 2 3 2 3 1 5 1 3 4 2 3 4 3 4 2 3 2 8 9 11 9 5 2 2 5 8 7 11 9 6 6 7 5 10 8 7 2 3 3 7 3 1 4 3 2 2 6 9 10 7 6 7 4 9 15 19 16 17 20 18 16 16 16 16 17
2 1 3 2 1 5 4 5 6 5 2 2 1 4 2 5 5 4 7 2 4 1 3 4 2 2 2 3 5 5 5 6 3 3 2 1 1 3 3 3 5 13 10 10 6 2 1 2 6 4 1 2 4 2 4 5 2 3 1 4 2 0 2 1 3 2 2 3 2 4 7 8 6 6 8 10 8 13 14 17 19 21 18 17 16 16 17 18
2 2 1 0 1 3 4 4 4 2 2 2 2 2 2 4 6 9 6 5 3 4 4 3 6 5 5 9 3 8 3 7 7 2 3 2 3 8 8 6 3 6 14 13 8 5 1 1 2 6 3 3 2 2 5 5 4 1 2 3 0 1 3 5 2 5 3 2 2 3 5 4 7 7 7 10 9 10 12 12 11 13 15 16 17 17 17 18
2 1 1 0 1 4 6 6 3 1 1 3 2 4 3 2 4 7 4 8 2 5 5 5 2 4 4 5 6 4 3 5 3 3 5 3 5 3 4 6 5 6 7 13 7 1 2 0 4 5 7 2 6 3 1 0 3 4 6 5 5 2 3 3 4 3 9 4 2 2 7 7 7 5 7 10 10 9 9 11 11 9 11 13 13 17 19 17
2 2 2 2 2 4 3 4 1 1 1 2 3 1 6 6 5 9 2 3 5 3 3 4 7 7 4 4 9 8 6 9 4 3 5 6 5 8 6 5 5 2 6 5 6 1 3 2 1 5 5 8 11 13 8 6 6 6 5 4 4 1 1 1 2 5 3 8 4 6 5 10 9 9 10 9 10 10 11 7 7 9 10 12 15 16 16 18
3 3 3 3 2 3 3 2 1 0 1 5 4 3 4 5 5 4 4 3 1 2 1 3 4 2 3 3 4 5 9 7 8 5 4 5 6 14 8 9 4 4 8 2 6 1 5 1 1 6 7 11 14 13 11 10 3 1 2 1 1 2 2 2 3 4 4 2 2 2 6 9 10 5 6 15 13 9 7 6 11 10 7 9 14 15 17 17
2 2 5 1 0 1 2 3 5 5 5 4 4 8 6 5 2 6 4 2 3 2 3 2 3 7 7 3 4 6 6 4 5 5 6 4 3 9 17 12 2 3 6 5 5 5 2 2 2 2 4 2 3 2 1 3 1 1 2 2 3 2 4 5 6 4 6 4 3 1 7 8 7 6 10 9 18 14 8 8 9 10 8 9 13 16 17 19
3 2 3 4 2 2 1 2 2 6 7 8 9 15 8 2 4 8 8 7 2 3 1 3 4 1 4 3 7 8 9 11 5 6 8 4 6 3 6 11 6 3 5 12 12 7 3 3 5 3 2 6 5 5 4 1 2 3 2 1 1 3 6 2 3 3 4 3 2 3 8 11 10 10 9 12 10 7 11 6 6 8 11 10 9 12 14 16
2 3 5 3 3 1 1 1 1 2 6 8 12 6 4 8 5 7 8 8 3 2 3 2 2 3 5 4 7 5 5 3 5 4 6 7 5 2 3 4 9 9 9 15 10 11 3 4 4 4 5 4 3 2 3 5 2 1 3 2 3 6 8 4 1 2 7 6 5 7 7 9 14 12 10 14 13 5 9 6 8 6 6 9 10 12 14 16
1 3 2 6 6 2 1 4 3 4 5 5 3 3 6 8 8 5 7 5 1 3 1 3 2 1 4 2 5 8 9 8 7 7 7 6 4 4 10 7 10 13 18 14 15 8 3 2 7 7 8 7 4 5 6 6 4 4 4 2 3 6 5 4 4 9 6 5 9 7 4 3 7 9 10 12 14 10 7 6 6 6 8 10 11 12 15 14
3 1 3 1 1 5 8 4 7 10 9 1 5 2 5 9 8 8 12 5 5 0 1 1 1 5 5 5 3 5 6 9 6 2 3 2 6 6 9 4 6 8 17 5 17 7 5 3 4 9 8 11 9 9 8 6 7 5 5 4 5 5 3 3 3 11 7 5 8 6 5 4 7 6 7 10 10 10 7 9 8 9 8 5 8 12 14 16
2 1 0 3 3 3 2 10 11 9 12 6 4 3 9 10 11 6 5 9 8 2 2 6 10 9 8 4 4 5 4 9 5 1 1 5 2 5 4 5 5 9 6 3 6 4 1 1 3 8 4 3 3 2 1 3 4 3 3 3 4 5 5 5 7 9 11 7 5 5 7 10 6 4 7 12 11 9 8 8 3 2 11 8 12 14 15 15
5 4 5 3 3 5 6 4 4 6 7 6 4 5 6 7 13 14 10 5 9 6 2 5 14 19 8 4 7 5 7 6 10 9 2 2 7 1 2 1 2 2 5 2 6 8 7 2 2 1 3 4 3 4 1 3 3 2 3 2 2 3 4 6 5 4 6 4 4 7 6 9 5 2 5 7 11 10 11 12 7 6 1 11 11 12 14 16
2 0 1 4 8 4 3 4 6 7 4 5 7 8 8 8 13 12 13 11 5 6 10 13 16 16 7 4 7 12 13 12 11 14 15 7 6 2 2 3 4 8 7 4 3 2 4 2 2 2 3 5 3 6 8 5 2 3 1 3 5 5 5 4 4 2 3 8 6 5 4 5 5 4 3 3 8 10 10 8 9 9 3 6 9 11 13 13
2 2 1 0 3 4 5 5 6 5 3 3 4 7 6 13 11 14 12 4 5 10 7 13 15 11 8 4 10 12 15 11 13 16 12 10 10 9 8 9 6 4 3 3 1 2 1 2 1 0 1 2 6 5 9 6 2 3 2 1 1 4 4 6 7 4 5 4 5 5 7 5 8 3 2 7 6 11 11 7 6 10 7 3 8 8 9 11
Wind_Direction
2 359 359 358 356 354 354 352 349 347 345 344 342 338 338 337 335 335 335 333 332 332 331 331 331 330 332 333 333 334 332 333 318 322 324 239 237 226 199 247 279 275 294 298 340 16 337 340 340 346 330 11 248 189 223 180 187 158 217 206 234 221 218 171 201 177 107 160 232 254 211 251 274 331 328 58 32 92 61 357 337 25 98 141 133 139 128 131
358 356 353 354 353 350 349 347 345 344 342 341 341 339 338 337 334 333 332 332 331 331 331 330 330 330 330 333 333 332 333 318 306 292 246 228 211 196 232 248 264 285 317 32 41 34 356 322 349 345 342 268 225 210 171 243 178 192 220 200 233 200 232 166 189 193 147 205 226 250 255 240 237 309 342 316 51 93 86 60 342 26 70 118 132 131 131 136
356 354 351 352 349 348 347 347 345 343 341 339 338 337 336 334 333 332 331 328 330 329 329 330 330 330 332 331 332 333 331 316 306 272 278 261 208 208 221 241 255 305 47 103 314 80 168 278 312 337 290 254 254 205 191 230 177 213 211 227 229 184 216 200 181 201 196 146 206 247 252 250 248 227 12 282 45 109 127 105 61 159 132 145 145 137 142 144
354 355 354 349 351 349 348 346 345 342 339 337 335 333 332 331 332 332 329 327 328 328 328 329 330 330 329 330 332 329 335 286 289 266 279 248 179 202 220 230 258 291 18 230 249 269 251 265 274 243 287 256 283 220 201 220 192 194 212 226 209 187 227 238 187 194 194 179 206 226 233 251 256 244 224 232 297 248 210 154 157 202 158 161 155 147 148 149
355 354 352 352 350 348 344 343 341 339 337 335 333 331 327 327 328 327 327 327 325 327 328 327 329 329 330 331 325 338 305 10 287 312 271 208 217 219 222 229 237 203 236 279 318 269 251 248 298 284 215 277 265 239 233 227 217 211 221 224 194 174 209 216 217 190 184 190 211 218 224 224 240 220 200 198 213 246 210 239 172 173 173 163 162 162 156 155
354 351 349 347 345 343 342 341 340 338 334 333 332 330 329 329 327 327 325 325 325 326 326 328 329 330 333 330 318 321 329 277 347 260 221 213 220 224 232 235 243 215 348 335 298 302 347 327 120 105 307 173 240 220 229 222 180 237 250 225 203 199 215 191 213 216 191 198 213 210 212 224 224 259 243 213 222 190 250 180 192 178 176 177 161 151 152 154
350 348 345 344 343 341 339 339 337 334 333 331 329 327 325 323 322 322 323 322 322 324 322 326 330 330 335 335 307 129 122 275 299 233 202 211 223 230 241 245 284 328 351 332 308 334 315 296 102 211 291 319 287 261 271 233 227 230 237 216 212 195 221 212 231 207 207 215 214 211 200 213 212 242 256 256 230 203 198 222 177 197 187 160 155 160 164 170
346 343 342 342 341 339 338 336 334 332 329 327 325 324 324 322 320 319 317 318 318 320 323 324 328 328 339 342 352 347 321 253 248 209 209 206 221 243 254 288 250 17 323 243 271 291 325 277 256 225 238 220 268 299 326 316 238 233 240 218 219 212 218 220 230 244 241 250 242 233 219 202 203 213 212 227 227 200 171 232 168 182 197 188 166 167 166 168
343 340 340 339 338 337 336 335 334 331 329 327 325 323 323 321 319 317 315 314 315 316 319 321 324 325 349 304 299 320 264 233 255 165 188 198 237 261 246 288 164 167 227 268 243 253 348 270 293 186 260 304 253 265 271 248 263 231 237 225 220 223 218 212 228 239 246 255 244 231 240 218 206 191 240 258 257 218 214 163 170 175 183 193 180 164 166 170
342 339 338 337 337 335 334 333 331 330 327 324 319 318 316 316 316 314 313 311 310 312 314 317 317 331 340 348 310 110 259 302 42 84 58 24 328 326 296 256 270 316 316 293 321 296 199 244 242 303 318 287 247 259 279 259 268 323 297 250 237 230 221 209 222 228 231 244 241 238 238 234 212 177 220 233 256 267 201 179 180 178 185 191 181 171 173 172
343 342 339 338 335 334 332 330 328 326 324 322 320 320 320 316 315 312 310 307 306 308 308 310 314 330 352 352 330 219 278 355 50 29 358 341 310 275 249 246 224 284 327 306 295 269 271 278 301 314 304 234 340 309 259 252 276 280 297 316 280 240 227 205 211 226 215 240 245 229 236 225 224 212 224 215 225 238 229 165 174 181 185 185 181 176 179 178
342 340 337 335 333 332 332 330 328 327 325 323 320 317 316 315 312 310 305 302 300 299 300 303 310 306 294 272 226 227 278 304 312 303 320 323 298 270 274 248 203 242 244 269 280 285 278 287 348 357 238 360 304 335 288 341 338 306 321 306 289 263 234 220 221 216 217 224 239 233 241 232 211 222 215 224 243 236 204 164 177 184 185 187 185 178 171 182
339 338 338 336 335 334 332 330 329 328 326 323 320 318 316 313 309 304 301 298 293 289 290 298 296 266 296 280 235 244 266 281 295 304 301 274 276 278 262 261 243 226 232 233 257 271 289 304 344 320 284 318 309 242 304 309 308 324 301 221 286 272 248 217 222 225 219 222 218 235 236 230 216 216 211 207 226 240 237 179 178 184 181 186 179 179 187 179
338 337 337 336 334 333 332 330 329 329 326 322 319 318 316 310 306 301 298 291 287 284 287 289 279 236 254 256 271 255 253 256 272 278 263 260 266 284 303 285 253 242 228 228 256 256 266 270 256 255 263 235 263 338 300 311 312 280 295 283 217 231 235 214 206 217 227 218 215 218 245 233 228 217 210 206 207 222 231 218 179 175 184 185 186 186 183 182
338 337 336 335 334 332 332 331 330 329 326 322 321 318 311 305 299 293 287 286 278 277 276 286 222 177 247 268 254 262 255 249 260 254 253 260 253 288 260 265 273 260 247 234 238 238 233 254 283 280 274 221 283 301 310 293 340 244 330 231 226 223 230 226 210 206 220 222 213 208 237 239 226 226 205 207 205 201 227 234 172 186 181 179 180 186 190 193
336 336 336 335 334 332 331 330 330 328 326 324 322 317 310 303 297 287 276 264 269 270 261 93 177 173 281 292 265 297 286 129 249 243 256 200 226 238 254 248 265 268 248 239 226 241 238 221 230 197 257 291 275 258 282 334 315 185 198 273 223 220 227 230 220 211 213 223 217 205 237 236 237 231 216 208 181 187 210 225 175 180 186 182 179 179 184 174
336 334 335 334 334 332 330 330 329 329 326 323 322 316 312 304 304 292 263 259 234 191 144 155 149 174 346 232 299 318 338 252 242 277 226 200 201 224 260 279 274 284 265 253 227 217 205 213 146 236 208 226 164 169 307 271 271 269 189 225 242 221 211 225 207 219 212 213 224 209 223 233 198 228 241 231 179 188 214 227 171 183 183 183 186 182 171 172
336 334 334 334 333 331 330 329 329 328 327 324 321 314 308 301 312 52 38 134 172 169 180 314 196 240 262 322 329 331 318 300 334 282 223 204 192 216 240 267 338 356 351 347 357 194 187 243 143 201 223 195 180 159 182 222 215 221 207 224 246 258 232 215 208 200 212 211 221 226 228 237 222 219 229 233 192 171 202 223 175 179 185 186 185 180 177 172
335 335 334 334 332 331 331 330 328 327 327 324 321 318 303 292 302 64 97 107 51 6 12 272 113 128 275 289 294 311 319 329 316 271 219 197 183 191 208 189 265 345 317 67 293 184 183 164 166 147 222 198 208 199 207 222 224 228 223 220 273 251 235 229 224 227 205 212 214 226 236 238 227 223 237 250 220 195 209 207 165 182 183 183 184 184 179 177
336 336 334 333 333 332 332 328 327 323 328 329 333 336 334 16 8 332 317 311 215 217 248 267 206 249 291 284 293 308 309 306 337 325 296 297 105 34 294 171 281 329 213 212 304 273 140 186 210 209 224 228 237 223 226 237 244 269 277 264 254 265 274 268 237 228 212 220 216 220 236 240 232 222 215 231 236 205 222 216 166 184 183 186 189 186 180 182
335 337 335 333 334 330 329 327 324 322 326 325 320 339 25 1 351 330 333 290 237 237 233 246 245 248 246 279 291 316 342 322 321 302 284 300 280 65 288 117 296 281 258 225 193 274 229 216 235 227 229 227 239 255 260 262 259 258 264 263 263 257 266 274 253 224 229 205 216 217 228 238 229 230 219 216 228 231 225 223 195 182 182 188 198 188 186 190
338 335 334 335 331 330 328 326 323 320 327 297 55 354 307 4 274 264 331 324 312 234 231 241 245 256 259 266 271 285 286 281 298 301 286 215 199 150 283 158 213 229 257 237 271 290 282 227 239 235 232 234 241 243 250 250 250 246 246 264 269 260 282 292 290 251 229 225 227 215 225 234 231 220 228 219 221 230 228 210 194 185 184 183 190 203 183 131
339 336 334 333 329 326 328 323 322 321 330 14 350 308 350 315 344 350 59 255 263 263 247 227 236 245 262 263 259 242 236 238 263 279 279 97 161 182 191 195 259 252 242 200 193 209 259 260 242 243 240 232 239 238 243 252 253 243 239 240 246 261 247 275 275 265 225 223 224 221 226 234 227 226 222 225 220 227 230 213 207 184 184 187 190 183 175 167
338 336 334 332 328 328 324 326 318 324 351 311 278 271 293 340 354 31 36 269 311 315 208 223 199 223 250 239 247 183 212 238 186 266 261 222 219 167 206 210 259 259 247 234 210 198 218 238 240 224 224 219 236 235 237 238 246 245 242 241 245 244 241 232 276 293 318 240 228 238 245 250 235 219 225 235 229 223 226 217 215 205 184 187 187 182 176 168
337 337 336 332 329 327 326 322 335 339 316 326 276 311 333 335 4 71 50 319 267 266 210 235 190 210 252 215 202 163 198 247 231 249 231 177 234 122 216 197 211 245 246 231 265 276 267 255 255 248 232 221 224 235 232 222 239 245 243 239 243 246 254 250 257 275 289 283 217 211 238 242 203 212 213 214 222 226 227 215 213 214 202 170 176 183 179 181
335 336 335 332 327 331 322 323 306 335 333 266 261 305 318 318 13 123 94 49 330 275 254 360 201 304 11 250 172 263 265 270 218 224 233 197 190 198 168 249 180 237 225 233 237 224 245 252 239 246 242 238 228 231 229 217 236 230 237 225 239 243 244 248 254 263 268 237 259 207 224 238 221 210 210 211 216 218 223 202 212 208 201 173 181 179 171 178
335 333 334 331 329 334 8 303 317 328 18 303 289 313 300 298 336 59 51 357 11 349 329 241 81 238 276 330 344 26 317 268 299 312 255 209 232 147 229 238 290 212 180 155 25 254 232 252 267 270 261 249 243 237 230 218 226 241 235 227 232 234 237 240 246 245 254 286 286 284 236 230 229 228 206 206 215 219 221 218 210 204 194 186 180 175 173 177
332 331 330 330 325 331 217 296 332 315 247 251 293 308 302 295 51 63 82 57 314 288 13 318 178 343 4 317 318 260 251 287 340 283 209 230 156 322 196 233 234 226 216 141 238 235 298 301 234 256 262 253 245 237 239 214 225 237 229 228 240 236 239 241 238 242 244 253 268 285 278 238 221 244 217 199 209 217 221 222 219 204 197 183 176 178 177 177
331 329 327 324 326 312 221 183 198 256 246 279 302 301 309 37 73 94 111 105 249 345 189 76 281 26 339 327 328 324 317 334 214 261 349 336 184 128 296 252 252 266 219 190 239 258 218 235 253 257 265 282 279 242 234 216 225 233 244 232 231 242 252 246 240 235 239 230 252 258 259 268 239 205 209 205 205 212 216 218 220 201 186 184 181 180 182 181
328 326 321 324 333 9 61 250 228 243 273 292 292 296 342 50 37 31 29 303 48 287 121 269 20 315 312 317 287 304 305 276 245 290 267 258 285 344 229 68 317 297 281 250 243 243 247 270 292 282 261 252 270 284 278 238 226 230 220 239 249 241 240 248 242 236 232 237 237 247 256 242 266 211 199 205 209 208 210 221 218 193 190 182 192 184 178 179
326 323 316 319 292 253 3 272 253 246 256 265 282 339 44 33 98 99 75 238 206 273 348 26 308 308 311 319 313 274 256 264 282 229 285 289 298 290 37 298 27 272 250 266 260 268 266 265 257 243 236 255 261 286 286 270 232 221 216 213 233 260 260 257 252 210 226 241 231 238 245 241 248 248 221 210 220 214 203 194 207 200 191 193 182 195 182 179
326 316 312 314 210 172 164 219 253 315 303 321 359 6 56 24 4 80 257 287 349 288 331 289 307 325 312 301 269 278 277 303 226 216 221 203 233 221 198 221 114 334 263 228 261 332 257 244 247 263 244 249 269 275 277 274 242 212 211 203 195 217 207 251 232 224 213 224 231 232 235 255 243 246 236 218 217 216 204 194 191 199 195 194 189 189 184 187
322 316 311 282 220 196 235 245 288 294 305 5 17 39 58 89 12 273 294 328 259 58 288 346 302 315 299 310 268 264 227 233 235 228 200 285 212 248 213 209 159 168 196 206 238 274 269 260 233 246 249 233 235 251 266 290 243 196 201 190 187 204 209 233 239 243 221 223 241 236 227 252 288 259 214 215 208 195 206 210 198 191 190 193 195 189 187 186
321 319 317 248 205 213 240 253 258 283 343 21 46 28 57 63 259 287 289 252 271 346 312 342 317 306 290 218 263 63 346 276 145 245 170 222 145 271 247 208 175 198 215 245 197 193 273 304 251 197 260 177 203 219 237 242 278 209 203 200 189 202 193 210 216 204 209 221 240 229 235 198 211 239 230 216 205 200 198 197 205 208 201 192 193 186 184 183
317 302 269 285 239 243 236 247 262 272 60 44 49 82 75 311 248 279 280 308 288 293 273 317 298 298 301 298 269 37 41 315 294 313 193 166 241 201 215 218 198 192 219 231 229 138 219 238 252 210 221 221 247 237 224 235 263 251 216 200 202 208 178 244 201 219 194 208 232 223 206 205 216 233 233 205 203 210 203 205 199 211 214 208 197 187 179 183
326 320 299 271 214 260 205 229 222 67 69 42 74 39 70 191 252 327 280 211 287 315 309 300 248 293 261 301 314 33 48 129 279 302 263 200 214 211 208 218 189 194 202 182 215 217 229 247 317 290 244 225 251 271 271 264 215 277 235 217 219 188 198 265 274 250 318 208 236 213 241 251 294 286 256 245 200 201 211 212 205 207 211 202 204 199 182 185
345 332 13 279 252 235 162 164 126 75 60 70 77 346 215 300 229 252 255 274 287 302 312 324 349 348 297 296 258 319 257 193 270 324 291 247 292 224 209 221 202 197 205 165 273 191 156 261 278 294 290 276 246 247 263 254 258 229 270 245 287 201 147 184 217 296 164 204 249 211 217 272 209 244 288 194 214 201 211 214 215 209 200 199 203 195 182 182
315 307 248 266 240 137 120 126 80 53 78 44 91 264 216 246 271 240 227 254 67 274 278 268 264 221 259 296 307 237 271 290 269 336 259 187 258 240 180 210 201 204 201 180 176 266 185 293 283 253 249 275 305 295 293 260 216 223 229 44 37 159 207 205 350 250 296 274 266 230 206 235 199 244 263 210 207 205 209 215 211 213 203 201 198 191 180 181
265 359 357 294 141 125 125 88 71 77 61 59 265 338 251 230 242 255 269 193 153 230 249 230 194 255 208 287 249 273 283 279 256 221 308 220 258 282 261 218 226 207 200 171 193 221 27 173 289 297 135 270 300 177 260 282 313 222 314 310 183 37 318 48 203 245 145 268 17 293 182 223 209 220 230 243 213 222 217 209 207 208 199 196 196 190 179 181
11 38 307 334 222 98 92 72 64 50 64 26 297 238 235 290 274 266 253 154 219 158 239 268 215 274 271 253 256 291 274 260 279 276 170 229 196 271 264 219 247 212 203 181 191 124 325 117 261 278 318 9 343 212 216 182 220 276 212 252 172 220 204 182 239 227 192 180 197 255 263 254 242 212 216 243 232 209 194 200 206 197 194 190 184 184 183 181
293 117 267 174 117 97 72 53 58 136 227 256 201 251 295 243 290 286 192 189 198 197 207 223 208 222 256 325 292 243 274 277 246 215 215 261 182 339 257 209 202 258 191 183 155 138 88 148 222 323 352 327 239 246 352 348 184 184 182 214 164 178 281 273 275 196 235 236 205 285 268 261 254 202 218 245 248 228 228 189 197 196 179 183 184 185 182 178
37 39 300 187 165 93 71 12 288 187 121 272 265 234 294 288 276 279 199 242 194 251 214 260 255 258 287 257 262 288 289 284 250 235 231 215 199 173 263 248 247 198 122 163 167 263 141 156 55 291 242 247 265 277 275 285 290 253 190 232 158 214 200 265 318 291 281 219 165 232 279 283 250 198 203 233 244 238 221 202 208 217 192 184 183 181 181 173
25 230 265 207 181 91 67 255 252 29 214 240 285 274 262 274 249 276 299 153 204 162 313 247 243 264 254 240 310 311 304 277 282 247 240 221 216 205 230 240 222 247 116 69 53 318 82 73 172 270 279 273 267 269 275 274 233 193 278 74 78 236 209 222 223 204 239 319 208 287 279 263 285 318 227 220 233 237 249 197 205 222 226 181 181 180 175 175
294 291 317 338 3 76 59 297 318 302 280 290 276 266 271 260 294 307 295 260 164 151 236 241 286 215 263 205 254 270 301 317 242 247 275 255 274 213 218 237 170 245 121 158 128 185 114 196 190 298 328 308 14 42 355 317 71 146 196 225 169 241 251 260 284 274 280 230 174 154 248 272 267 15 335 285 242 254 250 227 211 219 223 197 184 180 178 175
284 245 230 294 7 63 263 194 331 301 321 323 329 319 322 283 230 274 285 290 141 156 144 242 215 213 258 235 268 253 251 211 285 273 260 301 301 331 179 219 169 231 141 162 180 159 168 144 159 209 172 134 163 180 207 289 288 267 219 192 233 240 264 355 316 311 269 280 164 203 252 260 289 325 326 325 319 264 274 239 228 214 198 196 189 176 170 167
18 24 306 346 358 1 308 280 260 358 327 344 332 299 296 312 313 302 318 306 157 187 193 256 311 227 250 283 291 284 298 231 248 301 328 302 309 271 134 184 199 199 191 177 171 142 161 179 191 197 176 166 200 204 221 163 308 3 296 32 309 284 275 230 94 285 258 254 266 241 226 287 304 319 332 329 322 312 271 247 195 207 234 196 178 162 164 164
261 62 346 333 325 31 259 309 18 22 329 324 301 299 313 311 310 312 356 307 13 165 280 205 233 301 270 296 297 296 277 273 261 270 270 278 269 268 298 238 230 207 194 183 178 157 182 192 224 223 236 229 202 199 227 193 217 242 281 270 253 275 277 251 192 249 226 179 239 257 247 288 288 305 329 327 322 322 330 275 192 198 187 182 168 164 159 157
49 315 94 161 225 287 351 335 344 318 296 242 249 267 288 325 354 341 327 317 332 33 331 313 156 230 260 255 301 292 298 305 287 252 300 281 302 312 330 322 20 223 195 199 164 190 172 192 236 187 239 241 231 237 238 227 214 220 221 234 232 238 255 260 254 247 201 200 225 256 295 296 276 281 302 304 299 298 299 306 277 181 160 143 136 148 159 161
99 316 68 10 16 262 220 268 297 288 301 304 249 329 336 340 335 328 311 307 317 306 136 306 313 315 236 253 173 254 288 335 329 320 297 297 326 332 333 330 21 46 75 52 202 222 155 20 247 188 224 220 258 268 316 48 350 303 230 230 222 234 249 242 253 271 252 229 210 244 294 285 261 272 307 296 303 308 315 292 341 69 143 150 150 153 157 161
15 2 328 322 208 279 284 290 281 310 317 326 357 336 329 330 329 328 331 326 319 316 104 310 314 319 297 218 196 227 222 210 255 285 275 304 317 280 274 194 313 340 43 227 197 215 231 282 204 316 29 308 302 322 36 17 234 262 239 218 249 257 273 253 242 246 252 250 267 278 269 284 263 220 282 288 304 316 340 347 8 6 77 143 149 153 159 166
304 244 228 320 320 295 299 323 336 317 319 340 11 337 328 338 326 325 306 294 255 324 332 318 313 310 305 196 221 240 249 255 260 236 247 248 257 256 358 288 47 334 324 323 11 331 187 237 74 53 18 308 315 350 316 327 262 197 291 13 6 351 340 308 307 297 315 264 222 203 251 260 286 288 261 290 321 333 333 329 2 8 347 106 134 148 158 165
310 281 313 193 297 300 330 321 316 352 351 356 353 324 329 319 310 327 325 264 316 316 308 316 312 316 304 309 282 255 263 256 245 253 242 235 232 251 246 262 292 279 313 291 345 323 210 131 50 3 31 272 288 315 311 312 42 22 340 190 317 265 226 269 272 252 235 203 122 89 272 248 267 227 327 293 359 324 328 327 357 2 329 133 129 136 150 159